Home > Weather > Shanghai > Past weeks

Flag for China Weather for the Past 2 Weeks in Shanghai, Shanghai Municipality, China

Now
48 °F

Passing clouds.


Feels Like: 42 °F
Forecast: 34 / 42 °F
Wind: 17 mph from Northwest

Location: Shanghai Hongqiao Airport

Current Time: Feb 13, 2016 at 9:59:10 PM

Latest Report: Feb 13, 2016 at 9:30 PM


Visibility: N/A

Pressure: 30.09 "Hg

Humidity: 76%

Dew point: 41 °F

Location of ShanghaiLocation

Historic Weather in Shanghai — Graph

°F

Shanghai Temperature Yesterday

Maximum temperature yesterday: 73 °F (at 3:30 PM)
Minimum temperature yesterday: 57 °F (at 12:00 AM)
Average temperature yesterday: 62 °F

High & Low Weather Summary for the Past Weeks

 TemperatureHumidityPressure
High73 °F (Feb 12, 3:30 PM)100% (Jan 31, 7:30 PM)30.60 "Hg (Jan 31, 7:30 PM)
Low28 °F (Feb 2, 5:30 AM)21% (Feb 8, 4:00 PM)29.68 "Hg (Feb 13, 3:30 AM)
Average45 °F67%30.25 "Hg
* Reported Jan 29 8:00 PM — Feb 13 8:30 PM, Shanghai, Weather by CustomWeather, © 2016

Note: Actual official high and low records may vary slightly from our data, if they occured in-between our weather recording intervals... More about our weather records

Advertising

Shanghai Weather History for the Previous 24 Hours

 ConditionsComfort  
Time TempWeatherWind HumidityBarometerVisibility
8:30 PM
Sat, Feb 13
48 °FPassing clouds.15 mph76%30.07 "Hg4 mi
8:00 PM48 °FPassing clouds.20 mph76%30.04 "Hg4 mi
7:30 PM48 °FFog.24 mph82%30.04 "Hg3 mi
7:00 PM48 °FFog.17 mph82%30.04 "Hg3 mi
6:30 PM50 °FFog.17 mph82%30.01 "Hg2 mi
6:00 PM50 °FLight rain. Fog.22 mph82%30.01 "Hg2 mi
5:30 PM50 °FFog.22 mph82%29.98 "Hg2 mi
5:00 PM52 °FFog.22 mph77%29.95 "Hg2 mi
4:30 PM52 °FFog.22 mph82%29.92 "Hg2 mi
4:00 PM52 °FFog.17 mph82%29.89 "Hg3 mi
3:30 PM52 °FPartly sunny.17 mph82%29.86 "Hg4 mi
3:00 PM52 °FPartly sunny.20 mph82%29.86 "Hg5 mi
2:30 PM54 °FPartly sunny.17 mph82%29.83 "Hg5 mi
2:00 PM55 °FPartly sunny.20 mph77%29.83 "Hg5 mi
1:30 PM55 °FPartly sunny.17 mph82%29.83 "Hg5 mi
1:00 PM55 °FPartly sunny.17 mph82%29.83 "Hg4 mi
12:30 PM55 °FPartly sunny.15 mph88%29.83 "Hg4 mi
12:00 PM57 °FPartly sunny.17 mph88%29.83 "Hg4 mi
11:30 AM57 °FFog.15 mph94%29.80 "Hg3 mi
11:00 AM59 °FFog.13 mph94%29.80 "Hg2 mi
10:30 AM61 °FLight rain. Fog.10 mph94%29.80 "Hg3 mi
10:00 AM59 °FLight rain. Passing clouds.6 mph94%29.80 "Hg4 mi
9:30 AM59 °FLight rain. Passing clouds.3 mph94%29.77 "Hg4 mi
8:30 AM59 °FLight rain. Passing clouds.6 mph88%29.77 "Hg4 mi
8:00 AM59 °FPassing clouds.3 mph88%29.77 "Hg5 mi
7:30 AM59 °FScattered clouds.6 mph88%29.74 "HgN/A
7:00 AM59 °FPartly sunny.13 mph88%29.71 "HgN/A
6:00 AM57 °FClear.6 mph94%29.68 "Hg10 mi
5:30 AM57 °FClear.6 mph94%29.68 "Hg10 mi
5:00 AM57 °FClear.6 mph94%29.68 "Hg10 mi
4:30 AM57 °FClear.6 mph94%29.68 "Hg10 mi
4:00 AM57 °FClear.8 mph94%29.68 "Hg10 mi
3:30 AM57 °FClear.8 mph94%29.68 "Hg10 mi
3:00 AM57 °FClear.8 mph94%29.71 "Hg10 mi
2:30 AM57 °FClear.8 mph94%29.71 "Hg10 mi
2:00 AM57 °FClear.8 mph94%29.71 "Hg10 mi
1:30 AM57 °FPassing clouds.6 mph94%29.74 "HgN/A
1:00 AM57 °FPassing clouds.3 mph94%29.74 "HgN/A
12:30 AM57 °FClear.6 mph94%29.74 "Hg10 mi
12:00 AM57 °FClear.6 mph94%29.77 "Hg10 mi
11:30 PM
Fri, Feb 12
57 °FPassing clouds.6 mph88%29.77 "HgN/A
11:00 PM59 °FPassing clouds.6 mph88%29.77 "HgN/A
10:30 PM59 °FClear.10 mph88%29.80 "Hg10 mi
10:00 PM59 °FClear.8 mph88%29.80 "Hg10 mi
9:30 PM61 °FClear.8 mph83%29.80 "Hg10 mi
9:00 PM61 °FClear.6 mph83%29.80 "Hg10 mi
Weather by CustomWeather, © 2016

See weather overviewHow to use our weather pages